Sanford, ME

9:56 PM EDT on May 25, 2017 (GMT -0400)
Sanford Regional

Weather History for KSFM - March, 2013

Change the Weather History Date:

Monday, March 4, 2013

  Actual Average Record
Temperature  
Mean Temperature 32 °F -  
Max Temperature 35 °F 35 °F 51 °F (2008)
Min Temperature 28 °F 18 °F -11 °F (2009)
Degree Days  
Heating Degree Days 34    
Moisture  
Dew Point 19 °F    
Average Humidity 62    
Maximum Humidity 75    
Minimum Humidity 48    
Precipitation  
Precipitation 0.00 in - - ()
Sea Level Pressure  
Sea Level Pressure 29.57 in    
Wind  
Wind Speed 11 mph (WNW)    
Max Wind Speed 22 mph    
Max Gust Speed 29 mph    
Visibility 10 miles    
Events      
Averages and records for this station are not official NWS values.
T = Trace of Precipitation, MM = Missing Value Source: NWS Daily Summary

Daily Weather History Graph

Daily Weather History Graph

Search for Another Location

Airport or City:

Trip Planner

Search our weather history database for the weather conditions in past years. The results will help you decide how hot, cold, wet, or windy it might be!

Date:

Astronomy

Mar. 04, 2013 Rise Set
Actual Time 6:13 AM EST 5:35 PM EST
Civil Twilight 5:45 AM EST 6:04 PM EST
Nautical Twilight 5:12 AM EST 6:37 PM EST
Astronomical Twilight 4:39 AM EST 7:10 PM EST
Moon 12:27 AM EST (3/4) 10:07 AM EST (3/4)
Length of Visible Light 12h 19m
Length of Day
11h 22m
Waning Gibbous, 52% of the Moon is Illuminated
Mar 4
Waning Gibbous
Mar 4
Last Quarter
Mar 11
New
Mar 19
First Quarter
Mar 27
Full

Hourly Weather History & Observations

Time (EST) Temp. Windchill Dew Point Humidity Pressure Visibility Wind Dir Wind Speed Gust Speed Precip Events Conditions
12:15 AM 32.0 °F 25.6 °F 19.4 °F 60% 29.54 in 10.0 mi WNW 6.9 mph - N/A   Overcast
12:35 AM 32.0 °F 24.8 °F 21.2 °F 64% 29.54 in 10.0 mi West 8.1 mph - N/A   Overcast
12:55 AM 32.0 °F 23.6 °F 21.2 °F 64% 29.54 in 10.0 mi WNW 10.4 mph - N/A   Overcast
1:15 AM 30.2 °F 20.8 °F 21.2 °F 69% 29.54 in 10.0 mi WNW 11.5 mph 17.3 mph N/A   Overcast
1:35 AM 30.2 °F 22.6 °F 23.0 °F 75% 29.54 in 10.0 mi West 8.1 mph - N/A   Overcast
1:55 AM 30.2 °F 21.3 °F 19.4 °F 64% 29.54 in 10.0 mi West 10.4 mph 17.3 mph N/A   Overcast
2:35 AM 30.2 °F 21.9 °F 19.4 °F 64% 29.53 in 10.0 mi WNW 9.2 mph - N/A   Overcast
2:55 AM 30.2 °F 21.9 °F 23.0 °F 75% 29.53 in 10.0 mi West 9.2 mph - N/A   Overcast
3:15 AM 30.2 °F 21.9 °F 21.2 °F 69% 29.53 in 10.0 mi WNW 9.2 mph 18.4 mph N/A   Overcast
3:55 AM 30.2 °F 20.2 °F 19.4 °F 64% 29.54 in 10.0 mi West 12.7 mph - N/A   Overcast
4:35 AM 28.4 °F 19.1 °F 21.2 °F 74% 29.54 in 10.0 mi West 10.4 mph 17.3 mph N/A   Overcast
4:55 AM 28.4 °F 18.0 °F 15.8 °F 59% 29.53 in 10.0 mi West 12.7 mph 18.4 mph N/A   Overcast
5:15 AM 28.4 °F 20.4 °F 17.6 °F 64% 29.54 in 10.0 mi West 8.1 mph - N/A   Overcast
5:35 AM 28.4 °F 19.1 °F 21.2 °F 74% 29.54 in 10.0 mi West 10.4 mph 16.1 mph N/A   Mostly Cloudy
5:55 AM 28.4 °F 19.1 °F 17.6 °F 64% 29.54 in 10.0 mi WNW 10.4 mph - N/A   Clear
6:15 AM 28.4 °F 19.7 °F 15.8 °F 59% 29.55 in 10.0 mi West 9.2 mph - N/A   Partly Cloudy
6:55 AM 28.4 °F 19.1 °F 21.2 °F 74% 29.55 in 10.0 mi WNW 10.4 mph 18.4 mph N/A   Overcast
7:15 AM 28.4 °F 18.0 °F 14.0 °F 55% 29.55 in 10.0 mi West 12.7 mph 18.4 mph N/A   Overcast
7:35 AM 28.4 °F 19.7 °F 17.6 °F 64% 29.55 in 10.0 mi West 9.2 mph 16.1 mph N/A   Overcast
7:55 AM 28.4 °F 19.7 °F 21.2 °F 74% 29.55 in 10.0 mi West 9.2 mph 19.6 mph N/A   Overcast
8:15 AM 28.4 °F 19.7 °F 15.8 °F 59% 29.55 in 10.0 mi West 9.2 mph 20.7 mph N/A   Overcast
8:35 AM 30.2 °F 22.6 °F 17.6 °F 60% 29.56 in 10.0 mi WNW 8.1 mph - N/A   Overcast
8:55 AM 30.2 °F 19.8 °F 21.2 °F 69% 29.55 in 10.0 mi West 13.8 mph - N/A   Overcast
9:15 AM 30.2 °F 20.8 °F 19.4 °F 64% 29.55 in 10.0 mi West 11.5 mph - N/A   Overcast
9:35 AM 30.2 °F 21.9 °F 15.8 °F 55% 29.55 in 6.0 mi West 9.2 mph 17.3 mph N/A   Overcast
9:55 AM 30.2 °F 19.8 °F 21.2 °F 69% 29.55 in 7.0 mi West 13.8 mph - N/A   Overcast
10:15 AM 32.0 °F 22.1 °F 23.0 °F 69% 29.55 in 10.0 mi West 13.8 mph 18.4 mph N/A   Overcast
10:35 AM 32.0 °F 23.0 °F 19.4 °F 60% 29.54 in 10.0 mi West 11.5 mph 17.3 mph N/A   Overcast
10:55 AM 33.8 °F 25.3 °F 19.4 °F 56% 29.54 in 10.0 mi West 11.5 mph 17.3 mph N/A   Overcast
11:15 AM 32.0 °F 21.6 °F 21.2 °F 64% 29.54 in 10.0 mi West 15.0 mph 25.3 mph N/A   Overcast
11:35 AM 33.8 °F 23.5 °F 23.0 °F 65% 29.54 in 10.0 mi West 16.1 mph 23.0 mph N/A   Overcast
11:55 AM 33.8 °F 22.8 °F 19.4 °F 56% 29.53 in 10.0 mi West 18.4 mph 26.5 mph N/A   Overcast
12:15 PM 33.8 °F 24.3 °F 19.4 °F 56% 29.53 in 10.0 mi West 13.8 mph 24.2 mph N/A   Mostly Cloudy
12:35 PM 33.8 °F 24.3 °F 19.4 °F 56% 29.52 in 10.0 mi West 13.8 mph 19.6 mph N/A   Overcast
12:55 PM 33.8 °F 22.8 °F 21.2 °F 60% 29.52 in 10.0 mi West 18.4 mph 24.2 mph N/A   Overcast
1:15 PM 33.8 °F 21.9 °F 21.2 °F 60% 29.52 in 10.0 mi West 21.9 mph 28.8 mph N/A   Overcast
1:55 PM 35.6 °F 26.2 °F 17.6 °F 48% 29.52 in 10.0 mi WNW 15.0 mph 25.3 mph N/A   Overcast
2:15 PM 35.6 °F 25.5 °F 19.4 °F 52% 29.52 in 10.0 mi WNW 17.3 mph 24.2 mph N/A   Overcast
2:35 PM 35.6 °F 25.9 °F 19.4 °F 52% 29.53 in 10.0 mi WNW 16.1 mph 23.0 mph N/A   Mostly Cloudy
2:55 PM 35.6 °F 27.5 °F 21.2 °F 56% 29.53 in 10.0 mi WNW 11.5 mph 26.5 mph N/A   Overcast
3:15 PM 33.8 °F 23.9 °F 19.4 °F 56% 29.54 in 10.0 mi WNW 15.0 mph 23.0 mph N/A   Mostly Cloudy
3:35 PM 33.8 °F 25.3 °F 19.4 °F 56% 29.54 in 10.0 mi WNW 11.5 mph - N/A   Overcast
3:55 PM 33.8 °F 23.5 °F 19.4 °F 56% 29.54 in 10.0 mi WNW 16.1 mph 24.2 mph N/A   Overcast
4:15 PM 33.8 °F 24.3 °F 19.4 °F 56% 29.55 in 10.0 mi WNW 13.8 mph 21.9 mph N/A   Overcast
4:35 PM 33.8 °F 25.3 °F 19.4 °F 56% 29.56 in 10.0 mi WNW 11.5 mph 21.9 mph N/A   Overcast
4:55 PM 33.8 °F 23.5 °F 23.0 °F 65% 29.57 in 10.0 mi NW 16.1 mph 20.7 mph N/A   Overcast
5:15 PM 32.0 °F 22.5 °F 19.4 °F 60% 29.58 in 10.0 mi WNW 12.7 mph 19.6 mph N/A   Overcast
5:35 PM 32.0 °F 22.5 °F 17.6 °F 55% 29.59 in 10.0 mi WNW 12.7 mph 18.4 mph N/A   Overcast
5:55 PM 32.0 °F 23.0 °F 17.6 °F 55% 29.59 in 10.0 mi WNW 11.5 mph 21.9 mph N/A   Overcast
6:35 PM 30.2 °F 20.2 °F 19.4 °F 64% 29.61 in 10.0 mi WNW 12.7 mph 20.7 mph N/A   Overcast
6:55 PM 30.2 °F 19.3 °F 15.8 °F 55% 29.61 in 10.0 mi WNW 15.0 mph 23.0 mph N/A   Mostly Cloudy
7:15 PM 30.2 °F 20.2 °F 15.8 °F 55% 29.62 in 10.0 mi WNW 12.7 mph 19.6 mph N/A   Partly Cloudy
7:35 PM 30.2 °F 19.3 °F 19.4 °F 64% 29.62 in 10.0 mi WNW 15.0 mph 19.6 mph N/A   Scattered Clouds
7:55 PM 30.2 °F 20.8 °F 19.4 °F 64% 29.63 in 10.0 mi NW 11.5 mph 18.4 mph N/A   Overcast
8:15 PM 30.2 °F 21.3 °F 15.8 °F 55% 29.64 in 10.0 mi WNW 10.4 mph 18.4 mph N/A   Overcast
8:35 PM 30.2 °F 21.9 °F 17.6 °F 60% 29.65 in 10.0 mi WNW 9.2 mph 16.1 mph N/A   Overcast
8:55 PM 30.2 °F 21.9 °F 21.2 °F 69% 29.66 in 10.0 mi WNW 9.2 mph - N/A   Overcast
9:15 PM 30.2 °F 20.8 °F 17.6 °F 60% 29.66 in 10.0 mi NW 11.5 mph - N/A   Overcast
9:35 PM 30.2 °F 21.3 °F 17.6 °F 60% 29.67 in 10.0 mi NW 10.4 mph 17.3 mph N/A   Overcast
9:55 PM 30.2 °F 21.9 °F 21.2 °F 69% 29.67 in 10.0 mi WNW 9.2 mph - N/A   Overcast
10:15 PM 30.2 °F 22.6 °F 17.6 °F 60% 29.68 in 10.0 mi NW 8.1 mph - N/A   Overcast
10:35 PM 30.2 °F 21.3 °F 17.6 °F 60% 29.68 in 10.0 mi WNW 10.4 mph - N/A   Overcast
10:55 PM 30.2 °F 21.9 °F 21.2 °F 69% 29.68 in 10.0 mi WNW 9.2 mph - N/A   Overcast
11:35 PM 30.2 °F 21.3 °F 17.6 °F 60% 29.69 in 10.0 mi WNW 10.4 mph - N/A   Overcast
11:55 PM 30.2 °F 21.3 °F 19.4 °F 64% 29.69 in 10.0 mi WNW 10.4 mph - N/A   Overcast